This demonstration page uses our WeatherBlox Daily Observations layout. Learn more.

Hourly Observations for February 12, 2017

Temp ( °F °C ) Dew Point ( °F °C ) Humidity (%) Winds ( mph kmh ) Pressure ( in mb ) Visibility ( mi km ) Precip ( " mm )
12:15 am 00:15 Mostly Cloudy 45 7 37 3 76 76 undefined N/A 30.03 1017 10 16.09344 0 0
12:35 am 00:35 Cloudy 46 8 37 3 71 71 undefined N/A 30.03 1017 10 16.09344 0 0
12:55 am 00:55 Cloudy 46 8 37 3 71 71 undefined N/A 30.03 1017 10 16.09344 0 0
1:15 am 01:15 Mostly Cloudy 46 8 37 3 71 71 undefined N/A 30.03 1017 10 16.09344 0 0
1:35 am 01:35 Partly Cloudy 46 8 36 2 66 66 undefined N/A 30.03 1017 10 16.09344 0 0
1:55 am 01:55 Partly Cloudy 46 8 36 2 66 66 undefined N/A 30 1016 10 16.09344 0 0
2:15 am 02:15 Mostly Cloudy 46 8 36 2 66 66 undefined N/A 30 1016 10 16.09344 0 0
2:35 am 02:35 Cloudy 46 8 36 2 66 66 undefined N/A 30 1016 10 16.09344 0 0
2:55 am 02:55 Cloudy 46 8 36 2 66 66 undefined N/A 30 1016 10 16.09344 0 0
3:15 am 03:15 Cloudy 46 8 37 3 71 71 undefined N/A 30 1016 10 16.09344 0 0
3:35 am 03:35 Cloudy 46 8 37 3 71 71 undefined N/A 30 1016 10 16.09344 0 0
3:55 am 03:55 Cloudy 46 8 37 3 71 71 undefined N/A 30 1016 10 16.09344 0 0
4:15 am 04:15 Cloudy 46 8 37 3 71 71 undefined N/A 30 1016 10 16.09344 0 0
4:35 am 04:35 Cloudy 46 8 37 3 71 71 undefined N/A 30 1016 10 16.09344 0 0
4:55 am 04:55 Cloudy 46 8 37 3 71 71 undefined N/A 30 1016 10 16.09344 0 0
5:15 am 05:15 Cloudy 46 8 37 3 71 71 undefined N/A 29.97 1015 10 16.09344 0 0
5:35 am 05:35 Cloudy 46 8 37 3 71 71 undefined N/A 29.97 1015 10 16.09344 0 0
5:55 am 05:55 Cloudy 46 8 36 2 66 66 undefined N/A 29.94 1014 10 16.09344 0 0
6:15 am 06:15 Cloudy 46 8 36 2 66 66 undefined N/A 29.94 1014 10 16.09344 0 0
6:35 am 06:35 Cloudy 46 8 36 2 66 66 undefined N/A 29.94 1014 10 16.09344 0 0
6:55 am 06:55 Cloudy 46 8 36 2 66 66 undefined N/A 29.94 1014 10 16.09344 0 0
7:15 am 07:15 Cloudy 46 8 36 2 66 66 undefined N/A 29.91 1013 10 16.09344 0 0
7:35 am 07:35 Cloudy with Light Rain 46 8 37 3 71 71 undefined N/A 29.91 1013 10 16.09344 0 0
7:55 am 07:55 Cloudy with Light Rain 46 8 37 3 71 71 undefined N/A 29.91 1013 10 16.09344 0 0
8:15 am 08:15 Cloudy 46 8 37 3 71 71 undefined N/A 29.91 1013 10 16.09344 0 0
8:35 am 08:35 Cloudy with Light Drizzle 46 8 39 4 76 76 undefined N/A 29.91 1013 10 16.09344 0 0
8:55 am 08:55 Cloudy with Light Rain 45 7 41 5 87 87 undefined N/A 29.88 1012 10 16.09344 0 0
9:15 am 09:15 Cloudy with Light Rain 45 7 41 5 87 87 undefined N/A 29.88 1012 10 16.09344 0 0
9:35 am 09:35 Cloudy with Light Rain 46 8 41 5 82 82 undefined N/A 29.83 1010 10 16.09344 0 0
9:55 am 09:55 Cloudy with Light Rain 45 7 43 6 93 93 undefined N/A 29.85 1011 10 16.09344 0 0
10:15 am 10:15 Cloudy with Light Rain 45 7 43 6 93 93 undefined N/A 29.83 1010 5 8.04672 0.01 0.254
10:35 am 10:35 Cloudy with Light Rain 45 7 45 7 100 100 undefined N/A 29.83 1010 7 11.265408 0.02 0.508
10:55 am 10:55 Cloudy with Light Rain 45 7 45 7 100 100 undefined N/A 29.83 1010 7 11.265408 0.02 0.508
11:15 am 11:15 Cloudy with Light Drizzle 45 7 45 7 100 100 undefined N/A 29.85 1011 7 11.265408 0 0
11:35 am 11:35 Cloudy with Light Rain 45 7 45 7 100 100 NE 6 9 29.83 1010 5 8.04672 0.01 0.254
11:55 am 11:55 Cloudy with Mist and Fog 45 7 45 7 100 100 NE 5 7 29.8 1009 4 6.437376 0.01 0.254
12:15 pm 12:15 Cloudy 45 7 45 7 100 100 NNE 9 15 29.8 1009 7 11.265408 0 0
12:35 pm 12:35 Cloudy 45 7 45 7 100 100 NNE 7 11 29.8 1009 7 11.265408 0 0
12:55 pm 12:55 Cloudy 45 7 45 7 100 100 NNE 3 6 29.74 1007 7 11.265408 0 0
1:15 pm 13:15 Cloudy 45 7 45 7 100 100 NNE 3 6 29.74 1007 7 11.265408 0 0
1:35 pm 13:35 Cloudy with Mist and Fog 45 7 45 7 100 100 undefined N/A 29.71 1006 5 8.04672 0 0
1:55 pm 13:55 Cloudy with Mist and Fog 46 8 46 8 100 100 undefined N/A 29.71 1006 5 8.04672 0 0
2:15 pm 14:15 Cloudy 46 8 46 8 100 100 undefined N/A 29.71 1006 7 11.265408 0 0
2:35 pm 14:35 Cloudy with Light Rain 45 7 45 7 100 100 undefined N/A 29.71 1006 5 8.04672 0 0
2:55 pm 14:55 Cloudy with Light Rain 45 7 45 7 100 100 undefined N/A 29.71 1006 4 6.437376 0 0
3:15 pm 15:15 Cloudy with Mist and Fog 45 7 45 7 100 100 undefined N/A 29.71 1006 5 8.04672 0 0
3:35 pm 15:35 Cloudy with Mist and Fog 45 7 45 7 100 100 undefined N/A 29.71 1006 5 8.04672 0 0
3:55 pm 15:55 Cloudy with Mist and Fog 45 7 45 7 100 100 undefined N/A 29.74 1007 5 8.04672 0 0
4:15 pm 16:15 Cloudy 45 7 45 7 100 100 undefined N/A 29.74 1007 7 11.265408 0 0
4:35 pm 16:35 Cloudy 46 8 45 7 93 93 undefined N/A 29.74 1007 7 11.265408 0 0
4:55 pm 16:55 Cloudy 46 8 45 7 93 93 undefined N/A 29.77 1008 10 16.09344 0 0
5:15 pm 17:15 Cloudy 46 8 45 7 93 93 undefined N/A 29.77 1008 10 16.09344 0 0
5:35 pm 17:35 Cloudy 46 8 46 8 100 100 undefined N/A 29.77 1008 10 16.09344 0 0
5:55 pm 17:55 Partly Cloudy 46 8 46 8 100 100 undefined N/A 29.77 1008 10 16.09344 0 0
6:15 pm 18:15 Partly Cloudy 48 9 46 8 94 94 undefined N/A 29.77 1008 10 16.09344 0 0
6:35 pm 18:35 Partly Cloudy 50 10 45 7 82 82 undefined N/A 29.77 1008 10 16.09344 0 0
6:55 pm 18:55 Clear 50 10 45 7 82 82 NNW 12 19 29.8 1009 10 16.09344 0 0
7:15 pm 19:15 Partly Cloudy 50 10 45 7 82 82 undefined N/A 29.8 1009 10 16.09344 0 0
7:35 pm 19:35 Partly Cloudy 50 10 45 7 82 82 undefined N/A 29.8 1009 10 16.09344 0 0
7:55 pm 19:55 Clear 50 10 45 7 82 82 undefined N/A 29.77 1008 10 16.09344 0 0
8:15 pm 20:15 Clear 52 11 43 6 72 72 undefined N/A 29.77 1008 10 16.09344 0 0
8:35 pm 20:35 Mostly Cloudy 52 11 43 6 72 72 NW 24 39 29.77 1008 10 16.09344 0 0
8:55 pm 20:55 Cloudy 52 11 43 6 72 72 NW 25 41 29.8 1009 10 16.09344 0 0
9:15 pm 21:15 Mostly Cloudy 52 11 41 5 67 67 NW 22 35 29.77 1008 10 16.09344 0 0
9:35 pm 21:35 Mostly Cloudy 52 11 41 5 67 67 WNW 13 20 29.77 1008 10 16.09344 0 0
9:55 pm 21:55 Cloudy 52 11 39 4 62 62 W 14 22 29.77 1008 10 16.09344 0 0
10:15 pm 22:15 Partly Cloudy 52 11 37 3 58 58 W 15 24 29.77 1008 10 16.09344 0 0
10:35 pm 22:35 Partly Cloudy 52 11 36 2 54 54 W 30 48 29.77 1008 10 16.09344 0 0
10:55 pm 22:55 Mostly Cloudy with Rain 45 7 39 4 81 81 NNW 35 56 29.85 1011 7 11.265408 0 0
11:15 pm 23:15 Cloudy 43 6 36 2 76 76 NW 21 33 29.88 1012 10 16.09344 0 0
11:35 pm 23:35 Cloudy 43 6 34 1 71 71 NW 21 33 29.88 1012 10 16.09344 0 0
11:55 pm 23:55 Mostly Cloudy 43 6 32 0 66 66 undefined N/A 29.91 1013 10 16.09344 0 0

Powered by AerisWeather